| time (UTC) | temp F | wind direction | speed knots | gust knots | rain 1hr in | rain 24hr in | rain mn in | humidity % | barometer mb |
| 20260901030417 | 72 | 81 | 2.6 | 6.1 | 0.00 | 0.00 | 0.00 | 88 | 1014.5 |
| 20260901025918 | 72 | 74 | 4.3 | 7.0 | 0.00 | 0.00 | 0.00 | 88 | 1014.5 |
| 20260901024918 | 72 | 109 | 1.7 | 4.3 | 0.00 | 0.00 | 0.00 | 88 | 1014.6 |
| 20260901023918 | 72 | 82 | 1.7 | 4.3 | 0.00 | 0.00 | 0.00 | 87 | 1014.5 |
| 20260901023417 | 72 | 87 | 1.7 | 2.6 | 0.00 | 0.00 | 0.00 | 86 | 1014.4 |
| 20260901022918 | 73 | 124 | 2.6 | 4.3 | 0.00 | 0.00 | 0.00 | 86 | 1014.4 |
| 20260901021917 | 73 | 76 | 2.6 | 4.3 | 0.00 | 0.00 | 0.00 | 86 | 1014.4 |
| 20260901021417 | 73 | 111 | 1.7 | 4.3 | 0.00 | 0.00 | 0.00 | 86 | 1014.3 |
| 20260901020918 | 73 | 107 | 2.6 | 7.0 | 0.00 | 0.00 | 0.00 | 86 | 1014.3 |
| 20260901020417 | 72 | 92 | 1.7 | 4.3 | 0.00 | 0.00 | 0.00 | 86 | 1014.3 |
| 20260901015917 | 72 | 93 | 2.6 | 6.1 | 0.00 | 0.00 | 0.00 | 87 | 1014.2 |
| 20260901015418 | 71 | 126 | 3.5 | 7.0 | 0.00 | 0.00 | 0.00 | 89 | 1014.2 |
| 20260901014417 | 71 | 114 | 1.7 | 4.3 | 0.00 | 0.00 | 0.00 | 90 | 1014.1 |
| 20260901013917 | 70 | 109 | 1.7 | 4.3 | 0.00 | 0.00 | 0.00 | 90 | 1014.1 |
| 20260901013418 | 70 | 94 | 2.6 | 4.3 | 0.00 | 0.00 | 0.00 | 90 | 1014.1 |
| 20260901012917 | 70 | 85 | 2.6 | 5.2 | 0.00 | 0.00 | 0.00 | 89 | 1014.1 |
| 20260901012418 | 70 | 83 | 2.6 | 5.2 | 0.00 | 0.00 | 0.00 | 89 | 1014.0 |
| 20260901011918 | 70 | 70 | 2.6 | 2.6 | 0.00 | 0.00 | 0.00 | 89 | 1014.0 |
| 20260901011417 | 70 | 191 | 1.7 | 2.6 | 0.00 | 0.00 | 0.00 | 89 | 1013.9 |
| 20260901010917 | 70 | 128 | 0.9 | 2.6 | 0.00 | 0.00 | 0.00 | 89 | 1013.8 |
| 20260901010418 | 70 | 147 | 1.7 | 2.6 | 0.00 | 0.00 | 0.00 | 88 | 1013.7 |
| 20260901005917 | 71 | 146 | 1.7 | 2.6 | 0.00 | 0.00 | 0.00 | 88 | 1013.7 |
| 20260901005416 | 71 | 167 | 1.7 | 2.6 | 0.00 | 0.00 | 0.00 | 88 | 1013.6 |
| 20260901004917 | 71 | 159 | 0.9 | 2.6 | 0.00 | 0.00 | 0.00 | 87 | 1013.6 |
| 20260901004417 | 71 | 42 | 0.9 | 1.7 | 0.00 | 0.00 | 0.00 | 87 | 1013.5 |
| 20260901003917 | 71 | 42 | 0.0 | 0.0 | 0.00 | 0.00 | 0.00 | 86 | 1013.5 |
| 20260901002918 | 72 | 42 | 1.7 | 1.7 | 0.00 | 0.00 | 0.00 | 85 | 1013.4 |
| 20260901001419 | 72 | 42 | 1.7 | 2.6 | 0.00 | 0.00 | 0.00 | 85 | 1013.3 |
| 20260901000917 | 72 | 231 | 0.9 | 1.7 | 0.00 | 0.00 | 0.00 | 85 | 1013.3 |
| 20260901000417 | 72 | 229 | 1.7 | 2.6 | 0.00 | 0.00 | 0.00 | 84 | 1013.2 |
| 20260831235916 | 72 | 229 | 0.0 | 0.0 | 0.00 | 0.00 | 0.00 | 83 | 1013.2 |
| 20260831235416 | 73 | 229 | 0.0 | 0.0 | 0.00 | 0.00 | 0.00 | 82 | 1013.2 |
| 20260831234917 | 74 | 229 | 0.0 | 1.7 | 0.00 | 0.00 | 0.00 | 80 | 1013.2 |
| 20260831234417 | 74 | 229 | 1.7 | 2.6 | 0.00 | 0.00 | 0.00 | 79 | 1013.1 |
| 20260831233917 | 74 | 223 | 0.9 | 1.7 | 0.00 | 0.00 | 0.00 | 79 | 1013.1 |
| 20260831233418 | 74 | 223 | 0.9 | 2.6 | 0.00 | 0.00 | 0.00 | 79 | 1013.0 |
| 20260831232917 | 74 | 220 | 1.7 | 2.6 | 0.00 | 0.00 | 0.00 | 79 | 1013.0 |
| 20260831232417 | 74 | 201 | 1.7 | 2.6 | 0.00 | 0.00 | 0.00 | 80 | 1013.0 |
| 20260831231917 | 74 | 202 | 1.7 | 2.6 | 0.00 | 0.00 | 0.00 | 79 | 1013.0 |
| 20260831231416 | 75 | 222 | 1.7 | 2.6 | 0.00 | 0.00 | 0.00 | 78 | 1012.9 |
| 20260831230417 | 75 | 280 | 1.7 | 2.6 | 0.00 | 0.00 | 0.00 | 77 | 1012.8 |
| 20260831225917 | 76 | 273 | 1.7 | 2.6 | 0.00 | 0.00 | 0.00 | 77 | 1012.8 |
| 20260831224417 | 76 | 229 | 2.6 | 4.3 | 0.00 | 0.00 | 0.00 | 77 | 1012.6 |
| 20260831223917 | 76 | 218 | 1.7 | 4.3 | 0.00 | 0.00 | 0.00 | 77 | 1012.6 |
| 20260831223417 | 76 | 221 | 2.6 | 4.3 | 0.00 | 0.00 | 0.00 | 77 | 1012.5 |
| 20260831222917 | 76 | 220 | 2.6 | 5.2 | 0.00 | 0.00 | 0.00 | 77 | 1012.4 |
| 20260831221916 | 76 | 212 | 2.6 | 4.3 | 0.00 | 0.00 | 0.00 | 77 | 1012.4 |
| 20260831220916 | 76 | 215 | 2.6 | 2.6 | 0.00 | 0.00 | 0.00 | 77 | 1012.4 |
| 20260831220416 | 76 | 191 | 1.7 | 2.6 | 0.00 | 0.00 | 0.00 | 77 | 1012.4 |
| 20260831215917 | 76 | 221 | 0.9 | 2.6 | 0.00 | 0.00 | 0.00 | 77 | 1012.3 |
| 20260831215417 | 76 | 207 | 1.7 | 2.6 | 0.00 | 0.00 | 0.00 | 77 | 1012.3 |
| 20260831214916 | 76 | 216 | 0.9 | 2.6 | 0.00 | 0.00 | 0.00 | 76 | 1012.2 |
| 20260831214417 | 76 | 223 | 1.7 | 2.6 | 0.00 | 0.00 | 0.00 | 76 | 1012.2 |
| 20260831213916 | 77 | 247 | 0.9 | 2.6 | 0.00 | 0.00 | 0.00 | 76 | 1012.2 |
| 20260831213416 | 77 | 232 | 1.7 | 2.6 | 0.00 | 0.00 | 0.00 | 75 | 1012.2 |
| 20260831212916 | 76 | 232 | 1.7 | 2.6 | 0.00 | 0.00 | 0.00 | 76 | 1012.2 |
| 20260831211916 | 76 | 233 | 1.7 | 2.6 | 0.00 | 0.00 | 0.00 | 77 | 1012.1 |
| 20260831211416 | 77 | 233 | 1.7 | 1.7 | 0.00 | 0.00 | 0.00 | 76 | 1012.1 |
| 20260831210916 | 76 | 233 | 0.9 | 1.7 | 0.00 | 0.00 | 0.00 | 77 | 1012.2 |
| 20260831210416 | 76 | 227 | 0.9 | 1.7 | 0.00 | 0.00 | 0.00 | 77 | 1012.0 |
| 20260831205916 | 77 | 225 | 1.7 | 1.7 | 0.00 | 0.00 | 0.00 | 76 | 1012.0 |
| 20260831205416 | 77 | 224 | 0.9 | 2.6 | 0.00 | 0.00 | 0.00 | 75 | 1011.9 |
| 20260831204416 | 77 | 230 | 1.7 | 2.6 | 0.00 | 0.00 | 0.00 | 74 | 1011.9 |
| 20260831203916 | 77 | 230 | 0.0 | 1.7 | 0.00 | 0.00 | 0.00 | 75 | 1011.8 |
| 20260831202916 | 77 | 230 | 0.9 | 2.6 | 0.00 | 0.00 | 0.00 | 76 | 1011.7 |
| 20260831202416 | 77 | 230 | 1.7 | 2.6 | 0.00 | 0.00 | 0.00 | 76 | 1011.7 |
| 20260831201916 | 77 | 230 | 1.7 | 2.6 | 0.00 | 0.00 | 0.00 | 75 | 1011.7 |
| 20260831200916 | 76 | 224 | 2.6 | 2.6 | 0.00 | 0.00 | 0.00 | 78 | 1011.6 |
| 20260831200416 | 77 | 148 | 0.9 | 2.6 | 0.00 | 0.00 | 0.00 | 78 | 1011.6 |
| 20260831195916 | 76 | 147 | 0.0 | 1.7 | 0.00 | 0.00 | 0.00 | 78 | 1011.6 |
| 20260831195416 | 77 | 147 | 2.6 | 2.6 | 0.00 | 0.00 | 0.00 | 75 | 1011.5 |
| 20260831194417 | 79 | 310 | 0.0 | 0.0 | 0.00 | 0.00 | 0.00 | 74 | 1011.4 |
| 20260831193916 | 79 | 310 | 0.0 | 0.0 | 0.00 | 0.00 | 0.00 | 73 | 1011.4 |
| 20260831193416 | 78 | 310 | 0.0 | 0.0 | 0.00 | 0.00 | 0.00 | 73 | 1011.4 |
| 20260831192916 | 79 | 310 | 0.0 | 0.0 | 0.00 | 0.00 | 0.00 | 74 | 1011.4 |
| 20260831191415 | 79 | 310 | 0.0 | 0.0 | 0.00 | 0.00 | 0.00 | 73 | 1011.4 |
| 20260831190916 | 79 | 310 | 0.0 | 0.0 | 0.00 | 0.00 | 0.00 | 72 | 1011.4 |
| 20260831185916 | 80 | 310 | 0.0 | 0.0 | 0.00 | 0.00 | 0.00 | 71 | 1011.3 |
| 20260831185416 | 81 | 310 | 0.0 | 0.0 | 0.00 | 0.00 | 0.00 | 70 | 1011.2 |
| 20260831184915 | 81 | 310 | 0.0 | 0.0 | 0.00 | 0.00 | 0.00 | 70 | 1011.2 |
| 20260831184416 | 80 | 310 | 0.0 | 0.0 | 0.00 | 0.00 | 0.00 | 70 | 1011.1 |
| 20260831183916 | 80 | 310 | 0.0 | 0.0 | 0.00 | 0.00 | 0.00 | 70 | 1011.0 |
| 20260831183416 | 81 | 310 | 0.0 | 0.0 | 0.00 | 0.00 | 0.00 | 68 | 1011.0 |
| 20260831182916 | 81 | 310 | 0.0 | 0.0 | 0.00 | 0.00 | 0.00 | 67 | 1011.0 |
| 20260831182416 | 82 | 310 | 0.0 | 0.0 | 0.00 | 0.00 | 0.00 | 66 | 1010.9 |
| 20260831181916 | 83 | 310 | 0.0 | 0.9 | 0.00 | 0.00 | 0.00 | 64 | 1010.9 |
| 20260831181415 | 84 | 310 | 0.0 | 0.9 | 0.00 | 0.00 | 0.00 | 61 | 1010.9 |
| 20260831180917 | 84 | 310 | 0.9 | 1.7 | 0.00 | 0.00 | 0.00 | 60 | 1010.9 |
| 20260831180416 | 85 | 310 | 0.9 | 2.6 | 0.00 | 0.00 | 0.00 | 58 | 1010.8 |
| 20260831175916 | 85 | 310 | 0.9 | 2.6 | 0.00 | 0.00 | 0.00 | 58 | 1010.8 |
| 20260831175415 | 85 | 308 | 1.7 | 2.6 | 0.00 | 0.00 | 0.00 | 58 | 1010.8 |
| 20260831174916 | 86 | 296 | 1.7 | 2.6 | 0.00 | 0.00 | 0.00 | 57 | 1010.8 |
| 20260831174416 | 86 | 286 | 1.7 | 2.6 | 0.00 | 0.00 | 0.00 | 57 | 1010.7 |
| 20260831173916 | 87 | 288 | 0.9 | 1.7 | 0.00 | 0.00 | 0.00 | 57 | 1010.7 |
| 20260831173416 | 87 | 288 | 0.9 | 2.6 | 0.00 | 0.00 | 0.00 | 56 | 1010.7 |
| 20260831172916 | 88 | 288 | 0.9 | 2.6 | 0.00 | 0.00 | 0.00 | 54 | 1010.7 |
| 20260831172415 | 88 | 293 | 1.7 | 4.3 | 0.00 | 0.00 | 0.00 | 53 | 1010.7 |
| 20260831171916 | 88 | 305 | 1.7 | 4.3 | 0.00 | 0.00 | 0.00 | 53 | 1010.7 |
| 20260831170917 | 89 | 303 | 2.6 | 2.6 | 0.00 | 0.00 | 0.00 | 51 | 1010.8 |
| 20260831170416 | 89 | 293 | 2.6 | 4.3 | 0.00 | 0.00 | 0.00 | 51 | 1010.8 |
| 20260831165415 | 90 | 305 | 1.7 | 2.6 | 0.00 | 0.00 | 0.00 | 50 | 1010.9 |
| 20260831164916 | 90 | 261 | 0.9 | 2.6 | 0.00 | 0.00 | 0.00 | 49 | 1010.9 |
| 20260831164416 | 90 | 296 | 1.7 | 4.3 | 0.00 | 0.00 | 0.00 | 48 | 1010.9 |
| 20260831163915 | 90 | 296 | 3.5 | 5.2 | 0.00 | 0.00 | 0.00 | 48 | 1010.9 |
| 20260831162416 | 91 | 290 | 2.6 | 7.0 | 0.00 | 0.00 | 0.00 | 47 | 1011.0 |
| 20260831161915 | 91 | 290 | 2.6 | 6.1 | 0.00 | 0.00 | 0.00 | 48 | 1011.0 |
| 20260831161415 | 91 | 303 | 4.3 | 6.1 | 0.00 | 0.00 | 0.00 | 48 | 1011.1 |
| 20260831160915 | 91 | 297 | 2.6 | 6.1 | 0.00 | 0.00 | 0.00 | 48 | 1011.1 |
| 20260831160416 | 90 | 198 | 0.9 | 2.6 | 0.00 | 0.00 | 0.00 | 48 | 1011.1 |
| 20260831152915 | 92 | 292 | 4.3 | 6.1 | 0.00 | 0.00 | 0.00 | 48 | 1011.3 |
| 20260831152415 | 91 | 297 | 4.3 | 7.8 | 0.00 | 0.00 | 0.00 | 48 | 1011.3 |
| 20260831151915 | 91 | 251 | 2.6 | 2.6 | 0.00 | 0.00 | 0.00 | 49 | 1011.4 |
| 20260831151416 | 91 | 70 | 0.9 | 4.3 | 0.00 | 0.00 | 0.00 | 48 | 1011.4 |
| 20260831150915 | 92 | 291 | 4.3 | 5.2 | 0.00 | 0.00 | 0.00 | 48 | 1011.4 |
| 20260831150415 | 92 | 262 | 1.7 | 6.1 | 0.00 | 0.00 | 0.00 | 49 | 1011.5 |
| 20260831145416 | 91 | 347 | 0.9 | 2.6 | 0.00 | 0.00 | 0.00 | 48 | 1011.5 |
| 20260831144916 | 91 | 240 | 0.0 | 2.6 | 0.00 | 0.00 | 0.00 | 47 | 1011.6 |
| 20260831144415 | 91 | 293 | 1.7 | 5.2 | 0.00 | 0.00 | 0.00 | 50 | 1011.6 |
| 20260831143415 | 92 | 245 | 4.3 | 7.8 | 0.00 | 0.00 | 0.00 | 48 | 1011.6 |
| 20260831142915 | 92 | 285 | 4.3 | 6.1 | 0.00 | 0.00 | 0.00 | 48 | 1011.6 |
| 20260831142415 | 91 | 311 | 1.7 | 4.3 | 0.00 | 0.00 | 0.00 | 49 | 1011.6 |
| 20260831141415 | 91 | 213 | 4.3 | 7.0 | 0.00 | 0.00 | 0.00 | 48 | 1011.6 |
| 20260831140915 | 91 | 288 | 0.9 | 6.1 | 0.00 | 0.00 | 0.00 | 48 | 1011.7 |
| 20260831140415 | 91 | 267 | 4.3 | 6.1 | 0.00 | 0.00 | 0.00 | 50 | 1011.7 |
| 20260831134915 | 91 | 303 | 2.6 | 7.8 | 0.00 | 0.00 | 0.00 | 48 | 1011.8 |
| 20260831133916 | 91 | 286 | 4.3 | 10.4 | 0.00 | 0.00 | 0.00 | 51 | 1011.8 |
| 20260831133415 | 91 | 250 | 4.3 | 7.0 | 0.00 | 0.00 | 0.00 | 51 | 1011.8 |
| 20260831132915 | 90 | 241 | 2.6 | 5.2 | 0.00 | 0.00 | 0.00 | 50 | 1011.9 |
| 20260831132415 | 91 | 223 | 1.7 | 4.3 | 0.00 | 0.00 | 0.00 | 49 | 1012.0 |
| 20260831131915 | 90 | 220 | 4.3 | 6.1 | 0.00 | 0.00 | 0.00 | 50 | 1012.0 |
| 20260831131415 | 91 | 256 | 2.6 | 6.1 | 0.00 | 0.00 | 0.00 | 51 | 1012.1 |
| 20260831130916 | 91 | 262 | 3.5 | 6.1 | 0.00 | 0.00 | 0.00 | 50 | 1012.2 |
| 20260831125915 | 91 | 243 | 3.5 | 6.1 | 0.00 | 0.00 | 0.00 | 51 | 1012.2 |
| 20260831125415 | 91 | 234 | 1.7 | 5.2 | 0.00 | 0.00 | 0.00 | 52 | 1012.2 |
| 20260831124415 | 90 | 260 | 4.3 | 7.8 | 0.00 | 0.00 | 0.00 | 51 | 1012.4 |
| 20260831123916 | 91 | 283 | 2.6 | 5.2 | 0.00 | 0.00 | 0.00 | 51 | 1012.5 |
| 20260831123414 | 91 | 309 | 2.6 | 4.3 | 0.00 | 0.00 | 0.00 | 52 | 1012.5 |
| 20260831122914 | 91 | 31 | 2.6 | 4.3 | 0.00 | 0.00 | 0.00 | 52 | 1012.5 |
| 20260831122415 | 90 | 308 | 3.5 | 6.1 | 0.00 | 0.00 | 0.00 | 52 | 1012.5 |
| 20260831121915 | 89 | 5 | 1.7 | 2.6 | 0.00 | 0.00 | 0.00 | 52 | 1012.6 |
| 20260831121414 | 89 | 213 | 1.7 | 4.3 | 0.00 | 0.00 | 0.00 | 52 | 1012.6 |
| 20260831120915 | 89 | 265 | 3.5 | 6.1 | 0.00 | 0.00 | 0.00 | 53 | 1012.6 |
| 20260831120414 | 90 | 287 | 5.2 | 7.0 | 0.00 | 0.00 | 0.00 | 53 | 1012.7 |
| 20260831115915 | 90 | 315 | 2.6 | 6.1 | 0.00 | 0.00 | 0.00 | 53 | 1012.7 |
| 20260831115416 | 90 | 353 | 2.6 | 5.2 | 0.00 | 0.00 | 0.00 | 53 | 1012.7 |
| 20260831114916 | 90 | 337 | 3.5 | 7.8 | 0.00 | 0.00 | 0.00 | 52 | 1012.7 |
| 20260831114415 | 90 | 296 | 4.3 | 7.0 | 0.00 | 0.00 | 0.00 | 52 | 1012.8 |
| 20260831113914 | 90 | 312 | 1.7 | 6.1 | 0.00 | 0.00 | 0.00 | 53 | 1012.8 |
| 20260831113415 | 88 | 245 | 2.6 | 4.3 | 0.00 | 0.00 | 0.00 | 54 | 1012.9 |
| 20260831112915 | 89 | 261 | 4.3 | 8.7 | 0.00 | 0.00 | 0.00 | 54 | 1013.0 |
| 20260831112414 | 89 | 267 | 4.3 | 8.7 | 0.00 | 0.00 | 0.00 | 55 | 1012.9 |
| 20260831111415 | 88 | 327 | 2.6 | 10.4 | 0.00 | 0.00 | 0.00 | 54 | 1013.0 |
| 20260831110916 | 88 | 300 | 2.6 | 6.1 | 0.00 | 0.00 | 0.00 | 55 | 1013.0 |
| 20260831110414 | 87 | 152 | 2.6 | 4.3 | 0.00 | 0.00 | 0.00 | 56 | 1013.0 |
| 20260831105915 | 87 | 240 | 1.7 | 5.2 | 0.00 | 0.00 | 0.00 | 56 | 1013.0 |
| 20260831105414 | 88 | 246 | 3.5 | 7.8 | 0.00 | 0.00 | 0.00 | 55 | 1013.0 |
| 20260831104914 | 87 | 242 | 1.7 | 5.2 | 0.00 | 0.00 | 0.00 | 58 | 1013.1 |
| 20260831104414 | 87 | 202 | 3.5 | 5.2 | 0.00 | 0.00 | 0.00 | 57 | 1013.1 |
| 20260831103914 | 87 | 214 | 2.6 | 4.3 | 0.00 | 0.00 | 0.00 | 57 | 1013.1 |
| 20260831103414 | 87 | 267 | 0.9 | 2.6 | 0.00 | 0.00 | 0.00 | 57 | 1013.2 |
| 20260831102915 | 87 | 341 | 1.7 | 4.3 | 0.00 | 0.00 | 0.00 | 60 | 1013.2 |
| 20260831102414 | 87 | 253 | 3.5 | 5.2 | 0.00 | 0.00 | 0.00 | 59 | 1013.2 |
| 20260831101414 | 86 | 257 | 1.7 | 4.3 | 0.00 | 0.00 | 0.00 | 60 | 1013.2 |
| 20260831100414 | 86 | 286 | 0.9 | 2.6 | 0.00 | 0.00 | 0.00 | 60 | 1013.3 |
| 20260831095914 | 85 | 290 | 4.3 | 7.0 | 0.00 | 0.00 | 0.00 | 63 | 1013.4 |
| 20260831095414 | 85 | 242 | 1.7 | 4.3 | 0.00 | 0.00 | 0.00 | 63 | 1013.4 |
| 20260831094914 | 85 | 243 | 2.6 | 5.2 | 0.00 | 0.00 | 0.00 | 65 | 1013.5 |
| 20260831093915 | 84 | 255 | 2.6 | 5.2 | 0.00 | 0.00 | 0.00 | 66 | 1013.5 |
| 20260831093414 | 84 | 276 | 4.3 | 6.1 | 0.00 | 0.00 | 0.00 | 67 | 1013.6 |
| 20260831092914 | 84 | 283 | 3.5 | 6.1 | 0.00 | 0.00 | 0.00 | 68 | 1013.7 |
| 20260831092415 | 84 | 325 | 2.6 | 5.2 | 0.00 | 0.00 | 0.00 | 67 | 1013.7 |
| 20260831091913 | 83 | 260 | 2.6 | 5.2 | 0.00 | 0.00 | 0.00 | 67 | 1013.7 |
| 20260831091414 | 84 | 263 | 2.6 | 5.2 | 0.00 | 0.00 | 0.00 | 67 | 1013.7 |
| 20260831090914 | 83 | 211 | 2.6 | 4.3 | 0.00 | 0.00 | 0.00 | 66 | 1013.7 |
| 20260831090414 | 83 | 305 | 1.7 | 5.2 | 0.00 | 0.00 | 0.00 | 67 | 1013.8 |
| 20260831085414 | 83 | 302 | 2.6 | 7.0 | 0.00 | 0.00 | 0.00 | 67 | 1013.8 |
| 20260831084914 | 83 | 296 | 2.6 | 5.2 | 0.00 | 0.00 | 0.00 | 68 | 1013.8 |
| 20260831083914 | 82 | 307 | 1.7 | 5.2 | 0.00 | 0.00 | 0.00 | 70 | 1013.8 |
| 20260831083413 | 82 | 297 | 1.7 | 5.2 | 0.00 | 0.00 | 0.00 | 71 | 1013.8 |
| 20260831082914 | 81 | 313 | 2.6 | 5.2 | 0.00 | 0.00 | 0.00 | 71 | 1013.7 |
| 20260831082414 | 81 | 295 | 2.6 | 5.2 | 0.00 | 0.00 | 0.00 | 72 | 1013.7 |
| 20260831080914 | 80 | 252 | 0.9 | 4.3 | 0.00 | 0.00 | 0.00 | 75 | 1013.5 |
| 20260831075914 | 79 | 309 | 1.7 | 4.3 | 0.00 | 0.00 | 0.00 | 74 | 1013.5 |
| 20260831075414 | 79 | 323 | 2.6 | 6.1 | 0.00 | 0.00 | 0.00 | 75 | 1013.5 |
| 20260831074914 | 78 | 296 | 2.6 | 4.3 | 0.00 | 0.00 | 0.00 | 78 | 1013.5 |
| 20260831073914 | 77 | 254 | 1.7 | 2.6 | 0.00 | 0.00 | 0.00 | 78 | 1013.4 |
| 20260831073414 | 77 | 256 | 1.7 | 2.6 | 0.00 | 0.00 | 0.00 | 78 | 1013.4 |
| 20260831072914 | 77 | 172 | 0.9 | 2.6 | 0.00 | 0.00 | 0.00 | 78 | 1013.3 |
| 20260831072415 | 76 | 213 | 0.0 | 0.0 | 0.00 | 0.00 | 0.00 | 79 | 1013.3 |
| 20260831071914 | 76 | 225 | 0.9 | 1.7 | 0.00 | 0.00 | 0.00 | 79 | 1013.2 |
| 20260831071413 | 75 | 222 | 0.9 | 2.6 | 0.00 | 0.00 | 0.00 | 80 | 1013.3 |
| 20260831070414 | 75 | 228 | 0.9 | 2.6 | 0.00 | 0.00 | 0.00 | 82 | 1013.2 |
| 20260831065913 | 74 | 239 | 2.6 | 2.6 | 0.00 | 0.00 | 0.00 | 82 | 1013.3 |
| 20260831065415 | 74 | 248 | 1.7 | 2.6 | 0.00 | 0.00 | 0.00 | 83 | 1013.3 |
| 20260831064914 | 74 | 275 | 1.7 | 2.6 | 0.00 | 0.00 | 0.00 | 83 | 1013.3 |
| 20260831064414 | 73 | 274 | 0.0 | 0.0 | 0.00 | 0.00 | 0.00 | 84 | 1013.2 |
| 20260831063913 | 73 | 281 | 0.0 | 1.7 | 0.00 | 0.00 | 0.00 | 84 | 1013.2 |
| 20260831062414 | 72 | 261 | 1.7 | 2.6 | 0.00 | 0.00 | 0.00 | 87 | 1013.3 |
| 20260831061413 | 71 | 250 | 2.6 | 2.6 | 0.00 | 0.00 | 0.00 | 87 | 1013.3 |
| 20260831060913 | 71 | 263 | 1.7 | 2.6 | 0.00 | 0.00 | 0.00 | 88 | 1013.3 |
| 20260831055913 | 69 | 236 | 0.9 | 2.6 | 0.00 | 0.00 | 0.00 | 90 | 1013.2 |
| 20260831054914 | 68 | 236 | 1.7 | 2.6 | 0.00 | 0.00 | 0.00 | 91 | 1013.2 |
| 20260831053914 | 68 | 286 | 0.0 | 0.0 | 0.00 | 0.00 | 0.00 | 91 | 1013.1 |
| 20260831052914 | 68 | 302 | 0.0 | 0.0 | 0.00 | 0.00 | 0.00 | 92 | 1013.0 |
| 20260831052413 | 67 | 306 | 0.0 | 0.0 | 0.00 | 0.00 | 0.00 | 92 | 1013.0 |
| 20260831051913 | 67 | 306 | 0.0 | 0.0 | 0.00 | 0.00 | 0.00 | 92 | 1013.0 |
| 20260831051414 | 67 | 305 | 0.0 | 0.0 | 0.00 | 0.00 | 0.00 | 92 | 1013.0 |
| 20260831050914 | 67 | 290 | 0.0 | 0.0 | 0.00 | 0.00 | 0.00 | 92 | 1013.0 |
| 20260831050413 | 67 | 190 | 0.0 | 0.0 | 0.00 | 0.00 | 0.00 | 92 | 1012.9 |
| 20260831045913 | 67 | 190 | 0.0 | 0.0 | 0.00 | 0.00 | 0.00 | 92 | 1012.8 |
| 20260831045413 | 67 | 190 | 0.0 | 0.0 | 0.00 | 0.00 | 0.00 | 92 | 1012.8 |
| 20260831044913 | 67 | 190 | 0.0 | 0.0 | 0.00 | 0.00 | 0.00 | 93 | 1012.7 |
| 20260831044413 | 67 | 190 | 0.0 | 0.0 | 0.00 | 0.00 | 0.00 | 93 | 1012.6 |
| 20260831043914 | 67 | 190 | 0.0 | 0.0 | 0.00 | 0.00 | 0.00 | 93 | 1012.5 |
| 20260831043413 | 67 | 190 | 0.0 | 0.0 | 0.00 | 0.00 | 0.00 | 93 | 1012.6 |
| 20260831042913 | 67 | 190 | 0.0 | 0.0 | 0.00 | 0.00 | 0.00 | 93 | 1012.6 |
| 20260831042413 | 67 | 190 | 0.0 | 0.0 | 0.00 | 0.00 | 0.00 | 93 | 1012.5 |
| 20260831041913 | 67 | 155 | 0.0 | 0.0 | 0.00 | 0.00 | 0.00 | 93 | 1012.5 |
| 20260831041413 | 67 | 153 | 0.0 | 0.0 | 0.00 | 0.00 | 0.00 | 93 | 1012.6 |
| 20260831040413 | 67 | 89 | 0.0 | 0.0 | 0.00 | 0.00 | 0.00 | 93 | 1012.7 |
| 20260831035913 | 68 | 89 | 0.0 | 0.0 | 0.00 | 0.00 | 0.00 | 93 | 1012.6 |
| 20260831035413 | 67 | 89 | 0.0 | 0.0 | 0.00 | 0.00 | 0.00 | 93 | 1012.6 |
| 20260831034913 | 67 | 89 | 0.0 | 0.0 | 0.00 | 0.00 | 0.00 | 94 | 1012.6 |
| 20260831034414 | 67 | 89 | 0.0 | 0.0 | 0.00 | 0.00 | 0.00 | 93 | 1012.6 |
| 20260831033913 | 67 | 89 | 0.0 | 0.0 | 0.00 | 0.00 | 0.00 | 93 | 1012.5 |
| 20260831033413 | 67 | 89 | 0.0 | 0.0 | 0.00 | 0.00 | 0.00 | 93 | 1012.6 |
| 20260831032914 | 68 | 89 | 0.0 | 0.0 | 0.00 | 0.00 | 0.00 | 93 | 1012.7 |
| 20260831032414 | 67 | 89 | 0.0 | 0.0 | 0.00 | 0.00 | 0.00 | 93 | 1012.8 |
| 20260831031413 | 67 | 89 | 0.0 | 0.0 | 0.00 | 0.00 | 0.00 | 93 | 1012.8 |
| 20260831030913 | 67 | 89 | 0.0 | 0.0 | 0.00 | 0.00 | 0.00 | 93 | 1012.7 |